Location: Vancouver
(49.2500°N, 123.1330°W)
Time: 23:51:04
(UTC-07:00)

Iridium 35 - Visible Passes

Search period start: 17 August 2017 00:00
Search period end: 27 August 2017 00:00
Orbit: 776 x 779 km, 86.4° (Epoch: 17 August)

Date Brightness Start Highest point End Pass type
(mag) Time Alt. Az. Time Alt. Az. Time Alt. Az.
17 Aug 7.4 00:55:53 11° W 00:58:31 15° WNW 01:01:27 10° NNW visible
17 Aug 5.3 22:41:52 37° SE 22:43:33 52° E 22:48:36 10° NNE visible
18 Aug 6.8 00:22:19 18° WSW 00:24:35 24° WNW 00:28:50 10° NNW visible
18 Aug 5.9 22:08:17 24° ESE 22:10:12 31° E 22:14:44 10° NNE visible
18 Aug 6.1 23:48:45 28° SW 23:50:47 40° WNW 23:55:43 10° N visible
19 Aug 6.6 21:34:42 14° ESE 21:36:59 19° ENE 21:40:29 10° NE visible
19 Aug 5.2 23:15:10 38° SSW 23:17:08 68° W 23:22:21 10° N visible
20 Aug 7.7 00:57:44 10° WNW 00:58:56 11° WNW 01:00:08 10° NW visible
20 Aug 7.0 21:02:42 10° E 21:03:52 11° ENE 21:05:02 10° ENE visible
20 Aug 4.9 22:41:34 37° SSE 22:43:36 72° E 22:48:48 10° N visible
21 Aug 7.3 00:22:01 12° WSW 00:24:55 18° WNW 00:28:28 10° NNW visible
21 Aug 5.5 22:07:57 27° SE 22:10:11 42° E 22:15:04 10° NNE visible
21 Aug 6.6 23:48:25 20° WSW 23:51:02 29° WNW 23:55:36 10° NNW visible
22 Aug 6.2 21:34:20 17° ESE 21:36:52 25° E 21:41:04 10° NNE visible
22 Aug 5.8 23:14:47 27° SW 23:17:18 49° W 23:22:23 10° N visible
23 Aug 6.7 21:00:48 10° ESE 21:03:41 15° ENE 21:06:35 10° NE visible
23 Aug 5.0 22:41:09 32° S 22:43:41 84° W 22:48:56 10° N visible
24 Aug 7.6 00:22:48 10° W 00:25:17 13° WNW 00:27:47 10° NW visible
24 Aug 5.1 22:07:28 27° SSE 22:10:12 58° E 22:15:19 10° N visible
24 Aug 7.1 23:47:56 12° WSW 23:51:19 22° WNW 23:55:21 10° NNW visible
25 Aug 5.8 21:33:48 19° SE 21:36:49 34° E 21:41:29 10° NNE visible
25 Aug 6.3 23:14:15 18° SW 23:17:30 36° WNW 23:22:19 10° N visible
26 Aug 6.4 21:00:05 11° ESE 21:03:34 21° ENE 21:07:21 10° NNE visible
26 Aug 5.4 22:40:32 22° SSW 22:43:48 61° W 22:49:00 10° N visible
